{"data":{"norad_id":62843,"epoch":"2026-05-25T00:12:00.508608Z","epoch_age_seconds":74016,"freshness":"FRESH","line1":"1 62843U 25019Q   26145.00833922  .00014918  00000+0  55035-3 0  9998","line2":"2 62843  43.0015  17.9106 0001348 266.0076  94.0622 15.27591787 73921","mean_motion":15.27591787,"eccentricity":0.0001348,"inclination_deg":43.0015,"raan_deg":17.9106,"arg_perigee_deg":266.0076,"mean_anomaly_deg":94.0622,"bstar":0.00055035,"rev_number":7392,"period_min":94.266021345138,"perigee_km":482.08891862017,"apogee_km":483.93868487632,"semimajor_km":6861.1508017482,"source":"CELESTRAK","updated_at":"2026-05-25T13:38:19.781018Z"}}